This is the latest recevied weather packets stored in our database for station/object YO6IKB-10. If no packets are shown the sender has not sent any weather packets the latest 10 day(s).
| Time | Temp. | Humidity | Pressure | Rain* | Wind** | Luminosity | Snow |
|---|---|---|---|---|---|---|---|
| 1778070556 | 27.78° C | 27% | 1008.8 hPa | 0 mm | - | - | - |
| 1778070256 | 28.33° C | 26% | 1008.8 hPa | 0 mm | - | - | - |
| 1778069955 | 28.89° C | 29% | 1008.8 hPa | 0 mm | - | - | - |
| 1778069655 | 28.33° C | 31% | 1008.8 hPa | 0 mm | - | - | - |
| 1778069355 | 28.33° C | 30% | 1008.8 hPa | 0 mm | - | - | - |
| 1778069055 | 27.78° C | 30% | 1008.7 hPa | 0 mm | - | - | - |
| 1778068454 | 28.89° C | 28% | 1008.7 hPa | 0 mm | - | - | - |
| 1778068154 | 29.44° C | 29% | 1008.7 hPa | 0 mm | - | - | - |
| 1778067553 | 29.44° C | 31% | 1008.7 hPa | 0 mm | - | - | - |
| 1778067253 | 29.44° C | 32% | 1008.6 hPa | 0 mm | - | - | - |
| 1778066052 | 26.67° C | 34% | 1008.7 hPa | 0 mm | - | - | - |
| 1778065151 | 26.11° C | 34% | 1009.1 hPa | 0 mm | - | - | - |
| 1778063950 | 26.67° C | 35% | 1009.6 hPa | 0 mm | - | - | - |
| 1778063649 | 26.67° C | 36% | 1009.7 hPa | 0 mm | - | - | - |
| 1778063349 | 25.56° C | 37% | 1009.8 hPa | 0 mm | - | - | - |
| 1778063049 | 25.56° C | 37% | 1009.9 hPa | 0 mm | - | - | - |
| 1778062448 | 25° C | 36% | 1010 hPa | 0 mm | - | - | - |
| 1778062148 | 25.56° C | 36% | 1010.2 hPa | 0 mm | - | - | - |
| 1778061247 | 26.67° C | 36% | 1010.3 hPa | 0 mm | - | - | - |
| 1778060947 | 26.11° C | 38% | 1010.3 hPa | 0 mm | - | - | - |
| 1778060346 | 25.56° C | 39% | 1010.6 hPa | 0 mm | - | - | - |
| 1778060046 | 25.56° C | 40% | 1010.7 hPa | 0 mm | - | - | - |
| 1778059745 | 25.56° C | 39% | 1010.6 hPa | 0 mm | - | - | - |
| 1778059445 | 25.56° C | 39% | 1010.7 hPa | 0 mm | - | - | - |
| 1778059145 | 26.11° C | 39% | 1010.7 hPa | 0 mm | - | - | - |
* Rain latest hour (hover to see other rain measurements)
** Current wind speed in m/s (hover to see current wind gust speed)